User: anonymous
Location: Delta State University
(33.7460°N, 90.7320°W)
Time: 22:04:42
(UTC-05:00)
Language:

Iridium 13 - Orbit

View from above orbital plane
View from above orbital plane
View from above satellite
View from above satellite

Ground track
Ground track

The orbit data is extracted from the following two-line orbital elements,

1 24840U 97030E   14239.08774157  .00000049  00000-0  10415-4 0  9049
2 24840 086.3932 058.7087 0001914 105.2869 030.3459 14.34217552900010
Epoch (UTC): 27 August 2014 02:06:20
Eccentricity: 0.0001914
inclination: 86.3932°
perigee height: 776 km
apogee height: 779 km
right ascension of ascending node: 58.7087°
argument of perigee: 105.2869°
revolutions per day: 14.34217552
mean anomaly at epoch: 30.3459°
orbit number at epoch: 90001

The dashed part of the orbit path shows where the satellite is in the earth's shadow,  

DLR